Location: Asheville, NC
(35.6000°N, 82.5500°W)
Time: 08:56:21
(UTC-05:00)

Vanguard 2 Rocket - Pass Details

Date: 09 December 2017
Orbit: 556 x 3326 km, 32.9° (Epoch: 17 January)

Event Time Altitude Azimuth Distance (km) Brightness Sun altitude
Rises 02:56:27 0° 285° (WNW) 7,274 - -54.4°
Reaches altitude 10° 03:01:35 10° 281° (W) 6,287 - -53.3°
Maximum altitude 03:20:06 48° 215° (SW) 3,486 - -49.6°
Exits shadow 03:25:44 38° 173° (S) 3,538 9.7 -48.5°
Drops below altitude 10° 03:33:27 10° 146° (SE) 4,625 10.7 -46.9°
Sets 03:36:37 0° 140° (SE) 5,297 11.2 -46.3°
